This is the latest recevied weather packets stored in our database for station/object EA1CUE-WX. If no packets are shown the sender has not sent any weather packets the latest 10 day(s).
| Time | Temp. | Humidity | Pressure | Rain* | Wind** | Luminosity | Snow |
|---|---|---|---|---|---|---|---|
| 1788004730 | 21.67° C | 27% | 1020.9 hPa | 0 mm | - | - | - |
| 1788004430 | 22.22° C | 25% | 1021.1 hPa | 0 mm | - | - | - |
| 1788004130 | 21.67° C | 19% | 1021.1 hPa | 0 mm | - | - | - |
| 1788003830 | 21.67° C | 26% | 1021.1 hPa | 0 mm | - | - | - |
| 1788003530 | 21.67° C | 19% | 1021.1 hPa | 0 mm | - | - | - |
| 1788003230 | 21.11° C | 17% | 1021.1 hPa | 0 mm | - | - | - |
| 1788002930 | 20.56° C | 15% | 1021.1 hPa | 0 mm | - | - | - |
| 1788002630 | 20.56° C | 14% | 1021.1 hPa | 0 mm | - | - | - |
| 1788002330 | 20° C | 11% | 1021.2 hPa | 0 mm | - | - | - |
| 1788002030 | 20° C | 12% | 1021.1 hPa | 0 mm | - | - | - |
| 1788001730 | 20° C | 14% | 1021.1 hPa | 0 mm | - | - | - |
| 1788001430 | 20° C | 1% | 1021.2 hPa | 0 mm | - | - | - |
| 1788001130 | 19.44° C | 5% | 1021.3 hPa | 0 mm | - | - | - |
| 1788000830 | 19.44° C | 1% | 1021.3 hPa | 0 mm | - | - | - |
| 1788000530 | 18.89° C | 1% | 1021.3 hPa | 0 mm | - | - | - |
| 1788000230 | 18.33° C | 1% | 1021.2 hPa | 0 mm | - | - | - |
| 1787999930 | 18.33° C | 1% | 1021.2 hPa | 0 mm | - | - | - |
| 1787999630 | 17.78° C | 1% | 1021.2 hPa | 0 mm | - | - | - |
| 1787999330 | 17.22° C | 1% | 1021.1 hPa | 0 mm | - | - | - |
| 1787999030 | 17.22° C | 1% | 1021.2 hPa | 0 mm | - | - | - |
| 1787998730 | 16.67° C | 1% | 1021.1 hPa | 0 mm | - | - | - |
| 1787998430 | 16.11° C | 1% | 1021.2 hPa | 0 mm | - | - | - |
| 1787998130 | 16.11° C | 1% | 1021.3 hPa | 0 mm | - | - | - |
| 1787997830 | 15.56° C | 1% | 1021.3 hPa | 0 mm | - | - | - |
| 1787997530 | 15.56° C | 1% | 1021.3 hPa | 0 mm | - | - | - |
* Rain latest hour (hover to see other rain measurements)
** Current wind speed in m/s (hover to see current wind gust speed)